星链-1166 (STARLINK-1166 )

导读 | 星芒AI

STARLINK-1166 是 SpaceX Starlink 项目中的一颗低轨通信卫星,属于第 11 批发射的星链卫星群。该卫星于 2021 年 5 月 28 日由猎鹰 9 号火箭送入近地轨道,旨在为全球提供高速互联网服务。它运行在约 550 公里的高度,设计寿命为 5 至 7 年。STARLINK-1166 采用先进相控阵天线和激光通信技术,支持高速、低延迟的数据传输,是 SpaceX 构建全球卫星互联网网络的重要组成部分。

基本信息
目录编号:
45060
目录名称:
STARLINK-1166
国际标识:
2020-006S
轨道中心:
EARTH
卫星名称:
星链-1166
卫星全名:
星链-1166 (STARLINK-1166 )
卫星状态:
在轨 (已飞行2147 天)
发射日期:
2020-01-29 UTC
国别 :
美国 (US)
星等 :
--
轨道信息
数据来源 国际轨道数据
星历时间: 2025-12-14T23:14:51+0800
1天前
查看轨道信息
半长轴: 6925.352km
偏心率: 0.0001341
轨道倾角: 53.055°
近地点辐角 85.834°
升交点赤经 308.443°
平近点角 274.280°
近地点: 546.288km
远地点: 548.146km
周期: 95.592分钟
每日圈数: 15.063991
详细信息
固有亮度:
5
最大亮度:
2.5
卫星平台:
Starlink V1.0
覆盖范围:
全球
运营商:
太空探索技术公司
运营商所在国:
美国
制造商(研发单位):
太空探索技术公司
制造商所在国:
美国
使用方式:
暂无
卫星简介
星链(Starlink)计划是由太空探索技术公司(SpaceX)提出的一个巨型低轨卫星互联网星座项目,计划在2019年至2024年间在太空搭建由约1.2万颗卫星组成的“星链”网络,其中1584颗将部署在地球上空550千米处的近地轨道,并从2020年开始工作。该卫星仍在工作。
2D轨道图
3D轨道图
轨道高度分析图
轨道倾角分析图
轨道综合分析图
查看轨道综合分析图